This is the latest recevied weather packets stored in our database for station/object NB9X. If no packets are shown the sender has not sent any weather packets the latest 10 day(s).
| Time | Temp. | Humidity | Pressure | Rain* | Wind** | Luminosity | Snow |
|---|---|---|---|---|---|---|---|
| 1788559759 | 33.89° C | 100% | 1012.6 hPa | 0 mm | - | - | - |
| 1788559459 | 33.33° C | 100% | 1012.7 hPa | 0 mm | - | - | - |
| 1788559159 | 33.89° C | 100% | 1012.7 hPa | 0 mm | - | - | - |
| 1788558859 | 34.44° C | 100% | 1012.8 hPa | 0 mm | - | - | - |
| 1788558559 | 34.44° C | 100% | 1012.8 hPa | 0 mm | - | - | - |
| 1788558259 | 34.44° C | 100% | 1012.7 hPa | 0 mm | - | - | - |
| 1788557959 | 35° C | 100% | 1012.7 hPa | 0 mm | - | - | - |
| 1788557659 | 34.44° C | 100% | 1012.5 hPa | 0 mm | - | - | - |
| 1788557359 | 33.33° C | 100% | 1012.5 hPa | 0 mm | - | - | - |
| 1788557059 | 33.33° C | 100% | 1012.4 hPa | 0 mm | - | - | - |
| 1788556759 | 33.33° C | 100% | 1012.4 hPa | 0 mm | - | - | - |
| 1788556459 | 33.33° C | 100% | 1012.4 hPa | 0 mm | - | - | - |
| 1788556159 | 33.89° C | 100% | 1012.2 hPa | 0 mm | - | - | - |
| 1788555859 | 33.89° C | 100% | 1012.3 hPa | 0 mm | - | - | - |
| 1788555559 | 33.89° C | 100% | 1012.4 hPa | 0 mm | - | - | - |
| 1788555259 | 33.33° C | 100% | 1012.3 hPa | 0 mm | - | - | - |
| 1788554959 | 33.89° C | 100% | 1012.3 hPa | 0 mm | - | - | - |
| 1788554659 | 33.89° C | 100% | 1012.3 hPa | 0 mm | - | - | - |
| 1788554359 | 33.89° C | 100% | 1012.4 hPa | 0 mm | - | - | - |
| 1788554059 | 33.33° C | 100% | 1012.5 hPa | 0 mm | - | - | - |
| 1788553759 | 33.89° C | 100% | 1012.6 hPa | 0 mm | - | - | - |
| 1788553459 | 33.33° C | 100% | 1012.5 hPa | 0 mm | - | - | - |
| 1788553159 | 32.78° C | 100% | 1012.5 hPa | 0 mm | - | - | - |
| 1788552859 | 34.44° C | 100% | 1012.6 hPa | 0 mm | - | - | - |
| 1788552559 | 33.89° C | 100% | 1012.6 hPa | 0 mm | - | - | - |
* Rain latest hour (hover to see other rain measurements)
** Current wind speed in m/s (hover to see current wind gust speed)